EN

Hourly Weather Varadero

Today, 27 November, Friday

Time Temperature Precipitation Wind Pressure Humidity
00:00 +22°C° 0.1 mm 5 mps 762 mmHg 89%
01:00 +22°C° 0 mm 4 mps 762 mmHg 89%
02:00 +21°C° 0.1 mm 4 mps 762 mmHg 89%
03:00 +21°C° 0.1 mm 4 mps 762 mmHg 90%
04:00 +21°C° 0.1 mm 3 mps 762 mmHg 90%
05:00 +21°C° 0.1 mm 4 mps 762 mmHg 90%
06:00 +21°C° 0.1 mm 4 mps 762 mmHg 91%
07:00 +21°C° 0.1 mm 5 mps 762 mmHg 91%
08:00 +23°C° 0 mm 5 mps 762 mmHg 85%
09:00 +26°C° 0 mm 5 mps 763 mmHg 79%
10:00 +28°C° 0 mm 5 mps 763 mmHg 73%
11:00 +28°C° 0 mm 4 mps 763 mmHg 71%
12:00 +28°C° 0 mm 4 mps 762 mmHg 68%
13:00 +29°C° 0 mm 4 mps 762 mmHg 66%
14:00 +28°C° 0 mm 4 mps 761 mmHg 68%
15:00 +28°C° 0 mm 4 mps 761 mmHg 70%
16:00 +27°C° 0 mm 4 mps 760 mmHg 72%
17:00 +26°C° 0 mm 4 mps 761 mmHg 76%
18:00 +25°C° 0 mm 5 mps 761 mmHg 79%
19:00 +23°C° 0 mm 5 mps 761 mmHg 83%
20:00 +23°C° 0 mm 5 mps 761 mmHg 84%
21:00 +23°C° 0 mm 5 mps 762 mmHg 85%
22:00 +22°C° 0 mm 5 mps 762 mmHg 86%
23:00 +22°C° 0 mm 5 mps 762 mmHg 87%

Tomorrow, 28 November, Saturday

Time Temperature Precipitation Wind Pressure Humidity
00:00 +22°C° 0 mm 4 mps 761 mmHg 88%
01:00 +21°C° 0 mm 4 mps 761 mmHg 89%
02:00 +21°C° 0 mm 4 mps 761 mmHg 89%
03:00 +21°C° 0 mm 4 mps 761 mmHg 89%
04:00 +20°C° 0 mm 3 mps 761 mmHg 90%
05:00 +20°C° 0 mm 3 mps 761 mmHg 90%
06:00 +20°C° 0 mm 3 mps 761 mmHg 90%
07:00 +20°C° 0 mm 2 mps 761 mmHg 90%
08:00 +23°C° 0 mm 2 mps 762 mmHg 84%
09:00 +25°C° 0 mm 3 mps 762 mmHg 77%
10:00 +27°C° 0 mm 3 mps 762 mmHg 71%
11:00 +28°C° 0 mm 3 mps 762 mmHg 68%
12:00 +28°C° 0 mm 2 mps 762 mmHg 65%
13:00 +29°C° 0 mm 2 mps 761 mmHg 62%
14:00 +28°C° 0 mm 3 mps 761 mmHg 66%
15:00 +28°C° 0 mm 3 mps 761 mmHg 69%
16:00 +27°C° 0 mm 3 mps 760 mmHg 72%
17:00 +26°C° 0 mm 3 mps 761 mmHg 75%
18:00 +25°C° 0 mm 4 mps 761 mmHg 78%
19:00 +23°C° 0 mm 4 mps 761 mmHg 80%
20:00 +23°C° 0 mm 4 mps 761 mmHg 82%
21:00 +22°C° 0 mm 4 mps 762 mmHg 83%
22:00 +22°C° 0 mm 4 mps 762 mmHg 85%
23:00 +22°C° 0 mm 4 mps 762 mmHg 87%

Day after tomorrow, 29 November, Sunday

Time Temperature Precipitation Wind Pressure Humidity
00:00 +21°C° 0 mm 4 mps 762 mmHg 88%
01:00 +21°C° 0 mm 4 mps 761 mmHg 90%
02:00 +21°C° 0 mm 3 mps 761 mmHg 91%
03:00 +21°C° 0 mm 3 mps 761 mmHg 92%
04:00 +21°C° 0 mm 3 mps 761 mmHg 94%
05:00 +21°C° 0 mm 3 mps 761 mmHg 93%
06:00 +20°C° 0 mm 3 mps 761 mmHg 92%
07:00 +20°C° 0 mm 3 mps 762 mmHg 92%
08:00 +22°C° 0 mm 3 mps 762 mmHg 86%
09:00 +25°C° 0 mm 3 mps 762 mmHg 79%
10:00 +27°C° 0 mm 4 mps 762 mmHg 73%
11:00 +27°C° 0 mm 3 mps 762 mmHg 67%
12:00 +28°C° 0 mm 3 mps 761 mmHg 61%
13:00 +29°C° 0 mm 3 mps 761 mmHg 55%
14:00 +29°C° 0 mm 3 mps 761 mmHg 58%
15:00 +29°C° 0 mm 3 mps 760 mmHg 60%
16:00 +29°C° 0 mm 3 mps 760 mmHg 62%
17:00 +27°C° 0 mm 3 mps 760 mmHg 71%
18:00 +25°C° 0 mm 4 mps 761 mmHg 80%
19:00 +22°C° 0 mm 4 mps 761 mmHg 89%
20:00 +22°C° 0 mm 4 mps 761 mmHg 90%
21:00 +22°C° 0 mm 4 mps 761 mmHg 91%
22:00 +21°C° 0 mm 4 mps 762 mmHg 92%
23:00 +21°C° 0 mm 4 mps 761 mmHg 92%

30 November, Monday

Time Temperature Precipitation Wind Pressure Humidity
00:00 +21°C° 0 mm 4 mps 761 mmHg 92%
01:00 +20°C° 0 mm 4 mps 761 mmHg 91%
02:00 +20°C° 0 mm 3 mps 761 mmHg 91%
03:00 +20°C° 0 mm 3 mps 761 mmHg 91%
04:00 +20°C° 0 mm 3 mps 760 mmHg 90%
05:00 +20°C° 0 mm 2 mps 761 mmHg 90%
06:00 +20°C° 0 mm 2 mps 761 mmHg 89%
07:00 +20°C° 0 mm 2 mps 761 mmHg 89%
08:00 +23°C° 0 mm 2 mps 761 mmHg 82%
09:00 +25°C° 0 mm 2 mps 761 mmHg 75%
10:00 +27°C° 0 mm 2 mps 761 mmHg 68%
11:00 +28°C° 0 mm 2 mps 761 mmHg 64%
12:00 +29°C° 0 mm 1 mps 760 mmHg 59%
13:00 +30°C° 0 mm 1 mps 760 mmHg 54%
14:00 +30°C° 0 mm 1 mps 759 mmHg 56%
15:00 +30°C° 0 mm 1 mps 759 mmHg 57%
16:00 +30°C° 0 mm 1 mps 758 mmHg 58%
17:00 +28°C° 0 mm 1 mps 759 mmHg 64%
18:00 +26°C° 0 mm 1 mps 759 mmHg 70%
19:00 +22°C° 0 mm 0 mps 759 mmHg 76%
20:00 +24°C° 0 mm 1 mps 760 mmHg 76%
21:00 +24°C° 0 mm 2 mps 760 mmHg 77%
22:00 +22°C° 0 mm 3 mps 760 mmHg 78%
23:00 +22°C° 0 mm 3 mps 760 mmHg 81%

1 December, Tuesday

Time Temperature Precipitation Wind Pressure Humidity
00:00 +22°C° 0 mm 4 mps 760 mmHg 83%
01:00 +22°C° 0 mm 4 mps 760 mmHg 86%
02:00 +22°C° 0.2 mm 4 mps 760 mmHg 87%
03:00 +22°C° 0.2 mm 5 mps 760 mmHg 88%
04:00 +22°C° 0.2 mm 5 mps 760 mmHg 89%
05:00 +22°C° 0.7 mm 6 mps 760 mmHg 89%
06:00 +22°C° 0.7 mm 7 mps 760 mmHg 90%
07:00 +23°C° 0.7 mm 8 mps 761 mmHg 91%
08:00 +23°C° 0.1 mm 7 mps 761 mmHg 89%
09:00 +23°C° 0.1 mm 7 mps 762 mmHg 87%
10:00 +23°C° 0.1 mm 7 mps 762 mmHg 85%
11:00 +23°C° 0.1 mm 7 mps 762 mmHg 84%
12:00 +23°C° 0.1 mm 8 mps 761 mmHg 84%
13:00 +23°C° 0.1 mm 8 mps 761 mmHg 83%
14:00 +23°C° 0 mm 8 mps 761 mmHg 82%
15:00 +22°C° 0 mm 8 mps 761 mmHg 80%
16:00 +21°C° 0 mm 8 mps 761 mmHg 79%
17:00 +21°C° 0 mm 8 mps 761 mmHg 74%
18:00 +21°C° 0 mm 8 mps 762 mmHg 70%
19:00 +21°C° 0 mm 7 mps 762 mmHg 66%
20:00 +22°C° 0 mm 7 mps 762 mmHg 66%
21:00 +22°C° 0 mm 7 mps 763 mmHg 67%
22:00 +22°C° 0 mm 8 mps 763 mmHg 68%
23:00 +22°C° 0 mm 8 mps 763 mmHg 71%

2 December, Wednesday

Time Temperature Precipitation Wind Pressure Humidity
00:00 +21°C° 0 mm 8 mps 762 mmHg 74%
01:00 +21°C° 0 mm 7 mps 762 mmHg 78%
02:00 +21°C° 0 mm 7 mps 762 mmHg 79%
03:00 +21°C° 0 mm 7 mps 762 mmHg 81%
04:00 +22°C° 0 mm 7 mps 762 mmHg 82%
05:00 +22°C° 0 mm 8 mps 762 mmHg 82%
06:00 +22°C° 0 mm 8 mps 762 mmHg 81%
07:00 +22°C° 0 mm 8 mps 763 mmHg 81%
08:00 +23°C° 0 mm 8 mps 763 mmHg 81%
09:00 +23°C° 0 mm 8 mps 764 mmHg 81%
10:00 +23°C° 0 mm 8 mps 764 mmHg 81%
11:00 +24°C° 0 mm 8 mps 764 mmHg 80%
12:00 +24°C° 0 mm 8 mps 763 mmHg 80%
13:00 +24°C° 0 mm 8 mps 763 mmHg 79%
14:00 +24°C° 0 mm 8 mps 763 mmHg 81%
15:00 +24°C° 0 mm 8 mps 763 mmHg 83%
16:00 +24°C° 0 mm 8 mps 762 mmHg 85%
17:00 +24°C° 0 mm 8 mps 763 mmHg 84%
18:00 +24°C° 0 mm 8 mps 763 mmHg 84%
19:00 +24°C° 0 mm 8 mps 763 mmHg 83%
20:00 +24°C° 0.3 mm 8 mps 764 mmHg 85%
21:00 +24°C° 0.3 mm 8 mps 764 mmHg 86%
22:00 +24°C° 0.3 mm 8 mps 764 mmHg 87%
23:00 +24°C° 0.4 mm 8 mps 764 mmHg 88%
Show more

We Need Your Consent

Meteoprog and our Service Providers may store and access personal data such as cookies, device identifiers or other similar technologies on your device and process such data to personalise content and ads, as well as provide social media features and to analyse the traffic.

  • Store and/or access information on your device

    Cookies, device identifiers or other information can be stored or accessed on your device for the purposes indicated above.

  • Personalised ads and content, ad and content measurement, audience insights, and products development

    Ads and content can be personalised based on a profile. More data can be added to better personalise ads and content. Ad and content performance can be measured. Insights about the audience who saw the ads and content can be derived. Such data can be used to develop or improve user’s experience, systems and software.

By clicking ‘I Agree’ you will allow the use of indicated cookies, device identifiers, web beacons or other similar technologies. Your settings can be changed in the browser on your device.

For certain purposes, legitimate interests may be relied on, rather than consent. You can read more about this in our Privacy and Cookie Policy.